Location: Hains Lake
(37.8540°N, 99.8578°W)
Time: 05:43:54
(UTC+00:00)

DMSP B5D1-3 - Pass Details

Date: 11 December 2019
Orbit: 766 x 781 km, 98.5° (Epoch: 19 January)

Event Time Altitude Azimuth Distance (km) Brightness Sun altitude
Rises 12:33:41 0° 168° (SSE) 3,248 8.2 -13.7°
Reaches altitude 10° 12:35:59 10° 169° (S) 2,326 7.4 -13.2°
Maximum altitude 12:41:08 82° 256° (WSW) 794 4.5 -12.3°
Drops below altitude 10° 12:46:19 10° 345° (NNW) 2,343 6.7 -11.3°
Sets 12:48:39 0° 346° (NNW) 3,274 7.4 -10.9°
